Tracking 23893 objects as of 29-Nov-2021
HD Live streaming from Space Station
objects crossing your sky now

THORAD AGENA D DEB

Track THORAD AGENA D DEB now!
10-day predictions


NORAD ID: 4218
Int'l Code: 1969-082CH
Perigee: 711.3 km
Apogee: 767.0 km
Inclination: 70.1 °
Period: 99.4 minutes
Semi major axis: 7110 km
RCS: 0.0624 m2 (small)
Launch date: September 30, 1969
Source: United States (US)
Launch site: AIR FORCE WESTERN TEST RANGE (AFWTR)

Note: This is SATELLITE DEBRIS
aabbcc
Your satellite tracking list
Your tracking list is empty




NASA's NSSDC Master Catalog

Two Line Element Set (TLE):
1  4218U 69082CH  21333.22793999  .00000604  00000-0  17711-3 0  9992
2  4218  70.0991 149.7068 0039149 182.4289 177.6661 14.48046097717998
Source of the keplerian elements: AFSPC